Terug naar catalogus

SL-8 R/B

ActiefPO
NORAD 20528·ROCKET BODY·🇷🇺 Russia

Gelanceerd Mar 20, 1990 vanaf Plesetsk Cosmodrome

Loading…

Volgende Passages (komende 24 uur)

TLE

VersSource: Space-Track

Epoch: Sep 14, 2026, 07:32 UTC

1 20528U 90023B   26257.31435228 -.00000049  00000-0 -68521-4 0  9992
2 20528  82.9316  88.7324 0031931   4.1648 169.1717 13.73158074828021

Volg SL-8 R/B in realtime met AllMySat

Download on the App Store